Grand Junction, CO

12:44 PM MDT on March 26, 2017 (GMT -0600)
Walker

Weather History for KGJT - January, 2013

Change the Weather History Date:

Thursday, January 24, 2013

  Actual Average Record
Temperature  
Mean Temperature 21 °F 28 °F  
Max Temperature 30 °F 39 °F 55 °F (1994)
Min Temperature 12 °F 18 °F -12 °F (1930)
Degree Days  
Heating Degree Days 44 37  
Month to date heating degree days 1316 912  
Since 1 July heating degree days 3596 3271  
Cooling Degree Days 0 0  
Month to date cooling degree days 0 0  
Year to date cooling degree days 0 0  
Moisture  
Dew Point 19 °F    
Average Humidity 81    
Maximum Humidity 92    
Minimum Humidity 69    
Precipitation  
Precipitation T in 0.02 in 0.59 in (1989)
Month to date precipitation 0.18 0.46  
Year to date precipitation 0.18 0.46  
Snow  
Snow T in 0.10 in 5.40 in (1950)
Month to date snowfall 1.3 4.0  
Since 1 July snowfall 14.3 11.4  
Snow Depth 4.00 in    
Sea Level Pressure  
Sea Level Pressure 30.48 in    
Wind  
Wind Speed 1 mph (North)    
Max Wind Speed 10 mph    
Max Gust Speed 10 mph    
Visibility 6 miles    
Events      
T = Trace of Precipitation, MM = Missing Value Source: NWS Daily Summary

Daily Weather History Graph

Daily Weather History Graph

Search for Another Location

Airport or City:

Trip Planner

Search our weather history database for the weather conditions in past years. The results will help you decide how hot, cold, wet, or windy it might be!

Date:

Astronomy

Jan. 24, 2013 Rise Set
Actual Time 7:26 AM MST 5:26 PM MST
Civil Twilight 6:58 AM MST 5:54 PM MST
Nautical Twilight 6:25 AM MST 6:27 PM MST
Astronomical Twilight 5:54 AM MST 6:59 PM MST
Moon 3:31 PM MST (1/24) 5:26 AM MST (1/24)
Length of Visible Light 10h 56m
Length of Day
9h 59m
Waxing Gibbous, 95% of the Moon is Illuminated
Jan 24
Waxing Gibbous
Jan 26
Full
Feb 3
Last Quarter
Feb 10
New
Feb 17
First Quarter

Hourly Weather History & Observations

Time (MST) Temp. Windchill Dew Point Humidity Pressure Visibility Wind Dir Wind Speed Gust Speed Precip Events Conditions
12:53 AM 16.0 °F - 12.0 °F 84% 30.53 in 8.0 mi Calm Calm - N/A   Clear
1:53 AM 12.9 °F 5.2 °F 10.0 °F 88% 30.54 in 7.0 mi ENE 4.6 mph - N/A   Clear
2:53 AM 18.0 °F 11.1 °F 14.0 °F 84% 30.49 in 8.0 mi East 4.6 mph - N/A   Clear
3:53 AM 15.1 °F - 12.0 °F 88% 30.52 in 7.0 mi Calm Calm - N/A   Clear
4:53 AM 15.1 °F 9.4 °F 12.0 °F 88% 30.50 in 6.0 mi West 3.5 mph - N/A   Clear
5:53 AM 18.0 °F - 15.1 °F 88% 30.51 in 10.0 mi Calm Calm - N/A   Partly Cloudy
6:53 AM 19.0 °F - 15.1 °F 85% 30.52 in 7.0 mi Calm Calm - N/A   Clear
7:53 AM 17.1 °F - 15.1 °F 92% 30.52 in 6.0 mi Calm Calm - N/A   Overcast
8:53 AM 19.0 °F - 16.0 °F 88% 30.52 in 6.0 mi Calm Calm - N/A   Mostly Cloudy
9:53 AM 21.9 °F - 19.0 °F 89% 30.52 in 6.0 mi Calm Calm - N/A   Overcast
10:53 AM 23.0 °F 18.4 °F 19.0 °F 85% 30.52 in 5.0 mi ENE 3.5 mph - N/A   Mostly Cloudy
11:53 AM 26.1 °F - 19.0 °F 75% 30.49 in 7.0 mi Calm Calm - N/A   Overcast
12:53 PM 26.1 °F - 21.0 °F 81% 30.44 in 5.0 mi Calm Calm - N/A   Haze
1:53 PM 28.0 °F - 21.0 °F 75% 30.42 in 6.0 mi Calm Calm - N/A   Haze
2:53 PM 28.0 °F - 19.9 °F 72% 30.42 in 9.0 mi Calm Calm - N/A   Overcast
3:53 PM 30.0 °F - 21.9 °F 72% 30.41 in 8.0 mi Calm Calm - N/A   Overcast
4:53 PM 28.0 °F - 21.9 °F 78% 30.45 in 6.0 mi Calm Calm - N/A   Haze
5:53 PM 28.0 °F - 24.1 °F 85% 30.43 in 7.0 mi Calm Calm - N/A   Overcast
6:53 PM 28.0 °F 22.8 °F 26.1 °F 92% 30.45 in 6.0 mi NW 4.6 mph - N/A   Overcast
7:53 PM 28.0 °F 24.2 °F 25.0 °F 88% 30.46 in 6.0 mi NW 3.5 mph - N/A   Overcast
8:53 PM 28.0 °F - 24.1 °F 85% 30.45 in 6.0 mi Calm Calm - N/A   Overcast
9:53 PM 28.0 °F - 24.1 °F 85% 30.42 in 5.0 mi Calm Calm - N/A   Overcast
10:53 PM 27.0 °F - 25.0 °F 92% 30.46 in 4.0 mi Calm Calm - N/A   Overcast
11:53 PM 28.0 °F - 24.1 °F 85% 30.45 in 4.0 mi Calm Calm - 0.00 in   Overcast